Tracking 19827 objects as of 23-Aug-2019
HD Live streaming from Space Station
objects crossing your sky now

COSMOS 2251 DEB

Track COSMOS 2251 DEB now!
10-day predictions


NORAD ID: 35721
Int'l Code: 1993-036AQS
Perigee: 710.4 km
Apogee: 968.7 km
Inclination: 74.0 °
Period: 101.6 minutes
Semi major axis: 7210 km
RCS: 0.0071 m2 (small)
Launch date: June 16, 1993
Source: Commonwealth of Independent States (former USSR) (CIS)
Launch site: PLESETSK MISSILE AND SPACE COMPLEX (PKMTR)

Note: This is SATELLITE DEBRIS
aabbcc
Your satellite tracking list
Your tracking list is empty




NASA's NSSDC Master Catalog

Two Line Element Set (TLE):
1 35721U 93036AQS 19224.15752686  .00000546  00000-0  23948-3 0  9991
2 35721  73.9544  39.0722 0179099 328.0911  30.9479 14.17926376526465
Source of the keplerian elements: AFSPC